Time,TemperatureF,DewpointF,PressureIn,WindDirection,WindDirectionDegrees,WindSpeedMPH,WindSpeedGustMPH,Humidity,HourlyPrecipIn,Conditions,Clouds,dailyrainin,SoftwareType,DateUTC
2013-05-21 00:00:00,51.3,47.2,29.55,NNE,23,10.5,10.5,86,0.17,,,0.00,WUHU216HW,2013-05-21 05:00:00,
2013-05-21 00:05:00,51.3,47.2,29.55,NNE,23,10.5,10.5,86,0.16,,,0.00,WUHU216HW,2013-05-21 05:05:00,
2013-05-21 00:30:00,50.8,46.6,29.57,NNE,23,13.4,13.4,86,0.05,,,0.00,WUHU216HW,2013-05-21 05:30:00,
2013-05-21 00:35:00,50.8,46.6,29.57,NE,45,9.6,13.4,86,0.05,,,0.02,WUHU216HW,2013-05-21 05:35:00,
2013-05-21 00:36:00,50.8,46.6,29.57,NE,45,9.6,13.4,86,0.05,,,0.02,WUHU216HW,2013-05-21 05:36:00,
2013-05-21 01:00:00,50.4,46.3,29.57,North,0,6.9,6.9,86,0.08,,,0.02,WUHU216HW,2013-05-21 06:00:00,
2013-05-21 01:05:00,50.4,46.3,29.57,NNE,23,10.5,10.7,86,0.07,,,0.08,WUHU216HW,2013-05-21 06:05:00,
2013-05-21 01:06:00,50.4,46.3,29.57,NNE,23,10.5,10.7,86,0.07,,,0.08,WUHU216HW,2013-05-21 06:06:00,
2013-05-21 01:10:00,50.4,46.3,29.57,NNE,23,10.5,10.5,86,0.07,,,0.08,WUHU216HW,2013-05-21 06:10:00,
2013-05-21 01:30:00,49.9,46.1,29.56,NE,45,7.6,7.6,87,0.07,,,0.08,WUHU216HW,2013-05-21 06:30:00,
2013-05-21 01:35:00,49.9,46.1,29.56,NNE,23,11.0,11.0,87,0.07,,,0.09,WUHU216HW,2013-05-21 06:35:00,
2013-05-21 01:36:00,49.9,46.1,29.56,NNE,23,11.0,11.0,87,0.07,,,0.09,WUHU216HW,2013-05-21 06:36:00,
2013-05-21 01:40:00,49.9,46.1,29.56,NNE,23,11.0,11.0,87,0.07,,,0.09,WUHU216HW,2013-05-21 06:40:00,
2013-05-21 02:00:00,49.7,45.6,29.56,NE,45,7.4,7.4,86,0.01,,,0.09,WUHU216HW,2013-05-21 07:00:00,
2013-05-21 02:05:00,49.7,45.6,29.56,NNE,23,8.5,9.2,86,0.01,,,0.09,WUHU216HW,2013-05-21 07:05:00,
2013-05-21 02:10:00,49.7,45.6,29.56,NNE,23,8.5,8.5,86,0.01,,,0.09,WUHU216HW,2013-05-21 07:10:00,
2013-05-21 02:30:00,48.8,44.5,29.56,North,0,8.7,8.7,85,0.01,,,0.09,WUHU216HW,2013-05-21 07:30:00,
2013-05-21 02:35:00,48.8,44.5,29.56,NNE,23,6.3,8.7,85,0.01,,,0.10,WUHU216HW,2013-05-21 07:35:00,
2013-05-21 02:36:00,48.8,44.5,29.56,NNE,23,6.3,8.7,85,0.01,,,0.10,WUHU216HW,2013-05-21 07:36:00,
2013-05-21 02:40:00,48.8,44.5,29.56,NNE,23,6.3,6.3,85,0.01,,,0.10,WUHU216HW,2013-05-21 07:40:00,
2013-05-21 03:00:00,48.6,44.3,29.55,NE,45,8.5,8.5,85,0.01,,,0.10,WUHU216HW,2013-05-21 08:00:00,
2013-05-21 03:05:00,48.6,44.3,29.55,NE,45,8.5,8.5,85,0.01,,,0.10,WUHU216HW,2013-05-21 08:05:00,
2013-05-21 03:06:00,48.6,44.3,29.55,NE,45,8.5,8.5,85,0.01,,,0.10,WUHU216HW,2013-05-21 08:06:00,
2013-05-21 03:10:00,48.6,44.3,29.55,NE,45,8.5,8.5,85,0.01,,,0.10,WUHU216HW,2013-05-21 08:10:00,
2013-05-21 03:30:00,47.9,43.9,29.55,NNE,23,5.8,5.8,86,0.00,,,0.10,WUHU216HW,2013-05-21 08:30:00,
2013-05-21 03:31:00,47.9,43.9,29.55,NNE,23,10.1,10.1,86,0.00,,,0.10,WUHU216HW,2013-05-21 08:31:00,
2013-05-21 03:35:00,47.9,43.9,29.55,NNE,23,10.1,10.1,86,0.00,,,0.10,WUHU216HW,2013-05-21 08:35:00,
2013-05-21 03:36:00,47.9,43.9,29.55,NNE,23,10.1,10.1,86,0.00,,,0.10,WUHU216HW,2013-05-21 08:36:00,
2013-05-21 03:40:00,47.9,43.9,29.55,NNE,23,10.1,10.1,86,0.00,,,0.10,WUHU216HW,2013-05-21 08:40:00,
2013-05-21 04:00:00,47.9,43.9,29.56,NE,45,5.4,5.4,86,0.00,,,0.10,WUHU216HW,2013-05-21 09:00:00,
2013-05-21 04:05:00,47.9,43.9,29.56,NE,45,3.6,5.4,86,0.00,,,0.10,WUHU216HW,2013-05-21 09:05:00,
2013-05-21 04:10:00,47.9,43.9,29.56,NE,45,3.6,3.6,86,0.00,,,0.10,WUHU216HW,2013-05-21 09:10:00,
2013-05-21 04:30:00,47.9,43.9,29.55,NE,45,4.3,4.3,86,0.00,,,0.10,WUHU216HW,2013-05-21 09:30:00,
2013-05-21 04:35:00,47.9,43.9,29.55,NNE,23,4.9,4.9,86,0.00,,,0.10,WUHU216HW,2013-05-21 09:35:00,
2013-05-21 04:36:00,47.9,43.9,29.55,NNE,23,4.9,4.9,86,0.00,,,0.10,WUHU216HW,2013-05-21 09:36:00,
2013-05-21 04:40:00,47.9,43.9,29.55,NNE,23,4.9,4.9,86,0.00,,,0.10,WUHU216HW,2013-05-21 09:40:00,
2013-05-21 05:00:00,47.5,43.6,29.56,NNE,23,12.3,12.3,86,0.00,,,0.10,WUHU216HW,2013-05-21 10:00:00,
2013-05-21 05:05:00,47.5,43.6,29.56,ENE,68,8.5,12.3,86,0.00,,,0.10,WUHU216HW,2013-05-21 10:05:00,
2013-05-21 05:10:00,47.5,43.6,29.56,ENE,68,8.5,8.5,86,0.00,,,0.10,WUHU216HW,2013-05-21 10:10:00,
2013-05-21 05:30:00,47.2,43.6,29.56,North,0,12.8,12.8,87,0.00,,,0.10,WUHU216HW,2013-05-21 10:30:00,
2013-05-21 05:31:00,47.2,43.2,29.56,North,6,11.8,12.8,86,0.00,,,0.10,WUHU216HW,2013-05-21 10:31:00,
2013-05-21 05:35:00,47.2,43.2,29.56,NNE,23,9.8,12.8,86,0.00,,,0.10,WUHU216HW,2013-05-21 10:35:00,
2013-05-21 05:36:00,47.2,43.2,29.56,NNE,23,9.8,12.8,86,0.00,,,0.10,WUHU216HW,2013-05-21 10:36:00,
2013-05-21 05:40:00,47.2,43.2,29.56,NNE,23,9.8,12.8,86,0.00,,,0.10,WUHU216HW,2013-05-21 10:40:00,
2013-05-21 06:00:00,46.8,43.2,29.57,NNE,23,9.4,9.4,87,0.00,,,0.10,WUHU216HW,2013-05-21 11:00:00,
2013-05-21 06:05:00,46.8,43.2,29.57,NNE,23,9.4,9.4,87,0.00,,,0.10,WUHU216HW,2013-05-21 11:05:00,
2013-05-21 06:30:00,47.0,43.4,29.57,NE,45,5.6,5.6,87,0.00,,,0.10,WUHU216HW,2013-05-21 11:30:00,
2013-05-21 06:35:00,47.0,43.4,29.57,NE,45,4.7,5.6,87,0.00,,,0.10,WUHU216HW,2013-05-21 11:35:00,
2013-05-21 06:40:00,47.0,43.4,29.57,NE,45,4.7,4.7,87,0.00,,,0.10,WUHU216HW,2013-05-21 11:40:00,
2013-05-21 07:00:00,46.8,42.8,29.57,North,0,6.3,6.3,86,0.00,,,0.10,WUHU216HW,2013-05-21 12:00:00,
2013-05-21 07:05:00,46.8,42.8,29.57,NE,45,13.6,13.6,86,0.00,,,0.10,WUHU216HW,2013-05-21 12:05:00,
2013-05-21 07:10:00,46.8,42.8,29.57,NE,45,13.6,13.6,86,0.00,,,0.10,WUHU216HW,2013-05-21 12:10:00,
2013-05-21 07:30:00,47.0,42.8,29.58,NE,45,8.3,8.3,85,0.00,,,0.10,WUHU216HW,2013-05-21 12:30:00,
2013-05-21 07:35:00,46.8,42.6,29.58,NE,45,9.6,9.6,85,0.00,,,0.10,WUHU216HW,2013-05-21 12:35:00,
2013-05-21 07:36:00,46.8,42.6,29.58,NE,45,9.6,9.6,85,0.00,,,0.10,WUHU216HW,2013-05-21 12:36:00,
2013-05-21 07:40:00,46.8,42.6,29.58,NE,45,9.6,9.6,85,0.00,,,0.10,WUHU216HW,2013-05-21 12:40:00,
2013-05-21 08:00:00,47.0,42.8,29.58,NNE,23,9.4,9.4,85,0.00,,,0.10,WUHU216HW,2013-05-21 13:00:00,
2013-05-21 08:05:00,47.2,42.9,29.58,NNE,23,10.5,10.5,85,0.00,,,0.10,WUHU216HW,2013-05-21 13:05:00,
2013-05-21 08:10:00,47.2,42.9,29.58,NNE,23,10.5,10.5,85,0.00,,,0.10,WUHU216HW,2013-05-21 13:10:00,
2013-05-21 08:30:00,47.2,42.9,29.59,NNE,23,12.3,12.3,85,0.00,,,0.10,WUHU216HW,2013-05-21 13:30:00,
2013-05-21 08:31:00,47.2,42.9,29.59,NNE,23,12.3,12.3,85,0.00,,,0.10,WUHU216HW,2013-05-21 13:31:00,
2013-05-21 08:35:00,47.2,42.9,29.59,NNE,23,12.3,12.3,85,0.00,,,0.10,WUHU216HW,2013-05-21 13:35:00,
2013-05-21 08:36:00,47.2,42.9,29.59,NNE,23,12.3,12.3,85,0.00,,,0.10,WUHU216HW,2013-05-21 13:36:00,
2013-05-21 08:40:00,47.2,42.9,29.59,NNE,23,12.3,12.3,85,0.00,,,0.10,WUHU216HW,2013-05-21 13:40:00,
2013-05-21 09:00:00,47.7,43.1,29.60,NE,45,10.7,10.7,84,0.00,,,0.10,WUHU216HW,2013-05-21 14:00:00,
2013-05-21 09:05:00,47.7,43.1,29.60,NNE,23,9.2,10.7,84,0.00,,,0.10,WUHU216HW,2013-05-21 14:05:00,
2013-05-21 09:30:00,47.0,42.4,29.61,NNE,23,12.8,12.8,84,0.00,,,0.10,WUHU216HW,2013-05-21 14:30:00,
2013-05-21 09:31:00,47.2,42.6,29.61,NE,45,14.1,14.1,84,0.00,,,0.10,WUHU216HW,2013-05-21 14:31:00,
2013-05-21 09:35:00,47.2,42.6,29.61,NE,45,14.1,14.1,84,0.00,,,0.10,WUHU216HW,2013-05-21 14:35:00,
2013-05-21 09:36:00,47.2,42.6,29.61,NE,45,14.1,14.1,84,0.00,,,0.10,WUHU216HW,2013-05-21 14:36:00,
2013-05-21 09:40:00,47.2,42.6,29.61,NE,45,14.1,14.1,84,0.00,,,0.10,WUHU216HW,2013-05-21 14:40:00,
2013-05-21 10:00:00,47.9,42.9,29.60,NNE,23,13.2,13.2,83,0.00,,,0.10,WUHU216HW,2013-05-21 15:00:00,
2013-05-21 10:05:00,47.9,42.9,29.60,NNE,23,13.2,13.2,83,0.00,,,0.10,WUHU216HW,2013-05-21 15:05:00,
2013-05-21 10:10:00,47.9,42.9,29.60,NNE,23,13.2,13.2,83,0.00,,,0.10,WUHU216HW,2013-05-21 15:10:00,
2013-05-21 10:30:00,47.9,42.9,29.60,NE,45,11.4,11.4,83,0.00,,,0.10,WUHU216HW,2013-05-21 15:30:00,
2013-05-21 10:31:00,48.1,43.1,29.60,NE,45,13.9,13.9,83,0.00,,,0.10,WUHU216HW,2013-05-21 15:31:00,
2013-05-21 10:35:00,48.1,43.1,29.60,NE,45,13.9,13.9,83,0.00,,,0.10,WUHU216HW,2013-05-21 15:35:00,
2013-05-21 10:36:00,48.1,43.1,29.60,NE,45,13.9,13.9,83,0.00,,,0.10,WUHU216HW,2013-05-21 15:36:00,
2013-05-21 10:40:00,48.1,43.1,29.60,NE,45,13.9,13.9,83,0.00,,,0.10,WUHU216HW,2013-05-21 15:40:00,
2013-05-21 11:00:00,49.1,43.8,29.61,NE,45,7.2,7.2,82,0.00,,,0.10,WUHU216HW,2013-05-21 16:00:00,
2013-05-21 11:05:00,49.1,43.8,29.61,North,0,10.1,10.1,82,0.00,,,0.10,WUHU216HW,2013-05-21 16:05:00,
2013-05-21 11:10:00,49.1,43.8,29.61,North,0,10.1,10.1,82,0.00,,,0.10,WUHU216HW,2013-05-21 16:10:00,
2013-05-21 11:30:00,49.3,44.0,29.61,NNE,23,11.4,11.4,82,0.00,,,0.10,WUHU216HW,2013-05-21 16:30:00,
2013-05-21 11:35:00,49.3,44.0,29.61,NNE,23,11.4,11.4,82,0.00,,,0.10,WUHU216HW,2013-05-21 16:35:00,
2013-05-21 11:36:00,49.3,44.0,29.61,NNE,23,11.4,11.4,82,0.00,,,0.10,WUHU216HW,2013-05-21 16:36:00,
2013-05-21 12:00:00,49.9,44.6,29.62,NNE,23,8.1,8.1,82,0.00,,,0.10,WUHU216HW,2013-05-21 17:00:00,
2013-05-21 12:05:00,49.9,44.6,29.62,North,0,12.3,12.3,82,0.00,,,0.10,WUHU216HW,2013-05-21 17:05:00,
2013-05-21 12:10:00,49.9,44.6,29.62,North,0,12.3,12.3,82,0.00,,,0.10,WUHU216HW,2013-05-21 17:10:00,
2013-05-21 12:30:00,49.7,44.4,29.62,NNE,23,12.8,12.8,82,0.00,,,0.10,WUHU216HW,2013-05-21 17:30:00,
2013-05-21 12:35:00,49.7,44.4,29.62,NNE,23,11.9,12.8,82,0.00,,,0.10,WUHU216HW,2013-05-21 17:35:00,
2013-05-21 12:36:00,49.7,44.4,29.62,NNE,23,11.9,12.8,82,0.00,,,0.10,WUHU216HW,2013-05-21 17:36:00,
2013-05-21 12:40:00,49.7,44.4,29.62,NNE,23,11.9,11.9,82,0.00,,,0.10,WUHU216HW,2013-05-21 17:40:00,
2013-05-21 13:00:00,51.1,45.2,29.62,ENE,68,10.5,10.5,80,0.00,,,0.10,WUHU216HW,2013-05-21 18:00:00,
2013-05-21 13:05:00,51.1,45.2,29.62,NE,45,9.8,10.5,80,0.00,,,0.10,WUHU216HW,2013-05-21 18:05:00,
2013-05-21 13:30:00,52.0,45.7,29.62,NE,45,9.8,9.8,79,0.00,,,0.10,WUHU216HW,2013-05-21 18:30:00,
2013-05-21 13:35:00,51.8,45.5,29.62,NE,45,9.8,9.8,79,0.00,,,0.10,WUHU216HW,2013-05-21 18:35:00,
2013-05-21 13:36:00,51.8,45.5,29.62,NE,45,9.8,9.8,79,0.00,,,0.10,WUHU216HW,2013-05-21 18:36:00,
2013-05-21 13:40:00,51.8,45.5,29.62,NE,45,9.8,9.8,79,0.00,,,0.10,WUHU216HW,2013-05-21 18:40:00,
2013-05-21 14:00:00,52.4,46.1,29.63,North,0,9.4,9.4,79,0.00,,,0.10,WUHU216HW,2013-05-21 19:00:00,
2013-05-21 14:05:00,52.6,46.3,29.63,NNE,23,10.5,10.5,79,0.00,,,0.10,WUHU216HW,2013-05-21 19:05:00,
2013-05-21 14:30:00,53.5,46.8,29.63,NNE,23,10.7,10.7,78,0.00,,,0.10,WUHU216HW,2013-05-21 19:30:00,
2013-05-21 14:35:00,53.5,47.2,29.63,NNE,23,10.7,10.7,79,0.00,,,0.10,WUHU216HW,2013-05-21 19:35:00,
2013-05-21 14:40:00,53.5,47.2,29.63,NNE,23,10.7,10.7,79,0.00,,,0.10,WUHU216HW,2013-05-21 19:40:00,
2013-05-21 15:00:00,52.7,46.4,29.63,NNE,23,10.5,10.5,79,0.00,,,0.10,WUHU216HW,2013-05-21 20:00:00,
2013-05-21 15:05:00,52.7,46.8,29.63,North,0,7.6,10.5,80,0.00,,,0.10,WUHU216HW,2013-05-21 20:05:00,
2013-05-21 15:10:00,52.7,46.8,29.63,North,0,7.6,7.6,80,0.00,,,0.10,WUHU216HW,2013-05-21 20:10:00,
2013-05-21 15:30:00,52.2,45.9,29.64,ENE,68,13.4,13.4,79,0.00,,,0.10,WUHU216HW,2013-05-21 20:30:00,
2013-05-21 15:35:00,52.2,45.9,29.64,NE,45,14.3,14.3,79,0.00,,,0.10,WUHU216HW,2013-05-21 20:35:00,
2013-05-21 15:36:00,52.2,45.9,29.64,NE,45,14.3,14.3,79,0.00,,,0.10,WUHU216HW,2013-05-21 20:36:00,
2013-05-21 15:40:00,52.2,45.9,29.64,NE,45,14.3,14.3,79,0.00,,,0.10,WUHU216HW,2013-05-21 20:40:00,
2013-05-21 16:00:00,50.9,45.3,29.67,NE,45,1.8,1.8,81,0.00,,,0.10,WUHU216HW,2013-05-21 21:00:00,
2013-05-21 16:05:00,50.9,45.3,29.67,NNE,23,3.1,4.5,81,0.00,,,0.10,WUHU216HW,2013-05-21 21:05:00,
2013-05-21 16:06:00,50.9,45.3,29.67,NNE,23,3.1,4.5,81,0.00,,,0.10,WUHU216HW,2013-05-21 21:06:00,
2013-05-21 16:10:00,50.9,45.3,29.67,NNE,23,3.1,4.5,81,0.00,,,0.10,WUHU216HW,2013-05-21 21:10:00,
2013-05-21 16:30:00,49.9,45.2,29.67,North,0,6.7,6.7,84,0.11,,,0.10,WUHU216HW,2013-05-21 21:30:00,
2013-05-21 16:31:00,49.9,45.2,29.67,North,5,5.7,6.7,84,0.11,,,0.22,WUHU216HW,2013-05-21 21:31:00,
2013-05-21 16:35:00,49.9,45.2,29.67,NNE,23,3.8,6.7,84,0.11,,,0.22,WUHU216HW,2013-05-21 21:35:00,
2013-05-21 16:36:00,49.9,45.2,29.67,NNE,23,3.8,6.7,84,0.11,,,0.22,WUHU216HW,2013-05-21 21:36:00,
2013-05-21 17:00:00,49.9,45.5,29.68,NE,45,6.9,6.9,85,0.15,,,0.22,WUHU216HW,2013-05-21 22:00:00,
2013-05-21 17:05:00,49.9,45.5,29.68,NE,45,6.9,6.9,85,0.14,,,0.25,WUHU216HW,2013-05-21 22:05:00,
2013-05-21 17:10:00,49.9,45.5,29.68,NE,45,6.9,6.9,85,0.14,,,0.25,WUHU216HW,2013-05-21 22:10:00,
2013-05-21 17:30:00,49.7,45.6,29.69,NE,45,6.7,6.7,86,0.08,,,0.25,WUHU216HW,2013-05-21 22:30:00,
2013-05-21 17:31:00,49.7,45.6,29.69,NE,45,6.7,6.7,86,0.08,,,0.29,WUHU216HW,2013-05-21 22:31:00,
2013-05-21 17:35:00,49.7,45.6,29.69,NE,45,6.7,6.7,86,0.08,,,0.29,WUHU216HW,2013-05-21 22:35:00,
2013-05-21 17:36:00,49.7,45.6,29.69,NE,45,6.7,6.7,86,0.08,,,0.29,WUHU216HW,2013-05-21 22:36:00,
2013-05-21 18:00:00,49.3,44.7,29.68,North,0,9.4,9.4,84,0.07,,,0.29,WUHU216HW,2013-05-21 23:00:00,
2013-05-21 18:05:00,49.3,44.7,29.68,North,0,13.4,13.4,84,0.06,,,0.33,WUHU216HW,2013-05-21 23:05:00,
2013-05-21 18:06:00,49.3,44.7,29.68,North,0,13.4,13.4,84,0.06,,,0.33,WUHU216HW,2013-05-21 23:06:00,
2013-05-21 18:10:00,49.3,44.7,29.68,North,0,13.4,13.4,84,0.06,,,0.33,WUHU216HW,2013-05-21 23:10:00,
2013-05-21 18:30:00,48.8,43.8,29.68,NNW,338,13.2,13.2,83,0.02,,,0.33,WUHU216HW,2013-05-21 23:30:00,
2013-05-21 18:31:00,48.8,43.8,29.68,North,358,10.6,13.2,83,0.02,,,0.33,WUHU216HW,2013-05-21 23:31:00,
2013-05-21 18:35:00,48.8,43.8,29.68,NNE,23,9.8,13.2,83,0.02,,,0.33,WUHU216HW,2013-05-21 23:35:00,
2013-05-21 18:36:00,48.8,43.8,29.68,NNE,23,9.8,13.2,83,0.02,,,0.33,WUHU216HW,2013-05-21 23:36:00,
2013-05-21 18:40:00,48.8,43.8,29.68,NNE,23,9.8,9.8,83,0.02,,,0.33,WUHU216HW,2013-05-21 23:40:00,
2013-05-21 19:00:00,48.4,43.5,29.68,NNE,23,7.6,7.6,83,0.00,,,0.33,WUHU216HW,2013-05-22 00:00:00,
2013-05-21 19:01:00,48.4,43.5,29.69,NNE,23,7.8,7.8,83,0.00,,,0.33,WUHU216HW,2013-05-22 00:01:00,
2013-05-21 19:05:00,48.4,43.5,29.69,NNE,23,7.8,7.8,83,0.00,,,0.33,WUHU216HW,2013-05-22 00:05:00,
2013-05-21 19:06:00,48.4,43.5,29.69,NNE,23,7.8,7.8,83,0.00,,,0.33,WUHU216HW,2013-05-22 00:06:00,
2013-05-21 19:10:00,48.4,43.5,29.69,NNE,23,7.8,7.8,83,0.00,,,0.33,WUHU216HW,2013-05-22 00:10:00,
2013-05-21 19:30:00,47.9,42.9,29.69,NNE,23,9.8,9.8,83,0.00,,,0.33,WUHU216HW,2013-05-22 00:30:00,
2013-05-21 19:31:00,47.9,42.9,29.69,NNE,23,11.4,11.4,83,0.00,,,0.33,WUHU216HW,2013-05-22 00:31:00,
2013-05-21 19:35:00,47.9,42.9,29.69,NNE,23,11.4,11.4,83,0.00,,,0.33,WUHU216HW,2013-05-22 00:35:00,
2013-05-21 19:36:00,47.9,42.9,29.69,NNE,23,11.4,11.4,83,0.00,,,0.33,WUHU216HW,2013-05-22 00:36:00,
2013-05-21 19:40:00,47.9,42.9,29.69,NNE,23,11.4,11.4,83,0.00,,,0.33,WUHU216HW,2013-05-22 00:40:00,
2013-05-21 20:00:00,46.8,42.2,29.69,North,0,12.1,12.1,84,0.00,,,0.33,WUHU216HW,2013-05-22 01:00:00,
2013-05-21 20:05:00,47.0,42.4,29.69,North,0,12.1,12.1,84,0.00,,,0.33,WUHU216HW,2013-05-22 01:05:00,
2013-05-21 20:30:00,46.8,42.2,29.71,North,0,6.9,6.9,84,0.00,,,0.33,WUHU216HW,2013-05-22 01:30:00,
2013-05-21 20:31:00,46.8,42.2,29.71,NE,45,6.9,6.9,84,0.00,,,0.33,WUHU216HW,2013-05-22 01:31:00,
2013-05-21 20:35:00,46.8,42.2,29.71,NE,45,6.9,6.9,84,0.00,,,0.33,WUHU216HW,2013-05-22 01:35:00,
2013-05-21 20:36:00,46.8,42.2,29.71,NE,45,6.9,6.9,84,0.00,,,0.33,WUHU216HW,2013-05-22 01:36:00,
2013-05-21 20:40:00,46.8,42.2,29.71,NE,45,6.9,6.9,84,0.00,,,0.33,WUHU216HW,2013-05-22 01:40:00,
2013-05-21 21:00:00,46.6,41.8,29.72,NE,45,9.8,9.8,83,0.00,,,0.33,WUHU216HW,2013-05-22 02:00:00,
2013-05-21 21:05:00,46.6,41.8,29.71,NE,45,18.6,18.6,83,0.00,,,0.33,WUHU216HW,2013-05-22 02:05:00,
2013-05-21 21:06:00,46.6,41.8,29.71,NE,45,18.6,18.6,83,0.00,,,0.33,WUHU216HW,2013-05-22 02:06:00,
2013-05-21 21:30:00,46.4,41.3,29.72,ENE,68,13.4,13.4,82,0.00,,,0.33,WUHU216HW,2013-05-22 02:30:00,
2013-05-21 21:31:00,46.4,41.3,29.72,NE,46,12.2,13.4,82,0.00,,,0.33,WUHU216HW,2013-05-22 02:31:00,
2013-05-21 21:35:00,46.4,41.3,29.72,NNE,23,11.9,13.4,82,0.00,,,0.33,WUHU216HW,2013-05-22 02:35:00,
2013-05-21 21:36:00,46.4,41.3,29.72,NNE,23,11.9,13.4,82,0.00,,,0.33,WUHU216HW,2013-05-22 02:36:00,
2013-05-21 22:00:00,46.3,41.4,29.72,NNE,23,12.8,12.8,83,0.00,,,0.33,WUHU216HW,2013-05-22 03:00:00,
2013-05-21 22:05:00,46.3,41.4,29.72,NNW,338,13.2,13.2,83,0.00,,,0.33,WUHU216HW,2013-05-22 03:05:00,
2013-05-21 22:06:00,46.3,41.4,29.72,NNW,338,13.2,13.2,83,0.00,,,0.33,WUHU216HW,2013-05-22 03:06:00,
2013-05-21 22:10:00,46.3,41.4,29.72,NNW,338,13.2,13.2,83,0.00,,,0.33,WUHU216HW,2013-05-22 03:10:00,
2013-05-21 22:30:00,46.1,41.0,29.72,NNE,23,10.7,10.7,82,0.00,,,0.33,WUHU216HW,2013-05-22 03:30:00,
2013-05-21 22:31:00,46.3,41.1,29.72,NNE,16,10.1,10.7,82,0.00,,,0.33,WUHU216HW,2013-05-22 03:31:00,
2013-05-21 22:35:00,46.3,41.1,29.72,North,0,8.9,10.7,82,0.00,,,0.33,WUHU216HW,2013-05-22 03:35:00,
2013-05-21 22:36:00,46.3,41.1,29.72,North,0,8.9,10.7,82,0.00,,,0.33,WUHU216HW,2013-05-22 03:36:00,
2013-05-21 22:40:00,46.3,41.1,29.72,North,0,8.9,8.9,82,0.00,,,0.33,WUHU216HW,2013-05-22 03:40:00,
2013-05-21 23:00:00,46.1,41.0,29.73,NE,45,9.4,9.4,82,0.00,,,0.33,WUHU216HW,2013-05-22 04:00:00,
2013-05-21 23:01:00,46.1,41.0,29.72,ENE,68,12.5,12.5,82,0.00,,,0.33,WUHU216HW,2013-05-22 04:01:00,
2013-05-21 23:06:00,46.1,41.0,29.72,ENE,68,12.5,12.5,82,0.00,,,0.33,WUHU216HW,2013-05-22 04:06:00,
2013-05-21 23:30:00,45.5,40.7,29.71,NE,45,7.6,7.6,83,0.00,,,0.33,WUHU216HW,2013-05-22 04:30:00,
2013-05-21 23:35:00,45.5,40.7,29.71,NE,45,6.9,7.6,83,0.00,,,0.33,WUHU216HW,2013-05-22 04:35:00,
2013-05-21 23:36:00,45.5,40.7,29.71,NE,45,6.9,7.6,83,0.00,,,0.33,WUHU216HW,2013-05-22 04:36:00,
2013-05-21 23:40:00,45.5,40.7,29.71,NE,45,6.9,6.9,83,0.00,,,0.33,WUHU216HW,2013-05-22 04:40:00,